SES-14 (43175 NORAD) Tracking and Keplerian Element Data

This shows tracking and keplerian element data for the satellite.

Feedback or suggestion? Click here.




ElementValue
Catalog43175
NameSES-14
Epoch Orbit1375
Epoch Day269.09840767
Epoch Year2021
RAAN251.7962
Inclination0.0127
Eccentricity0.0001196
Argument of Perigee300.3784
Mean Anonmoly160.8969
Mean Motion1.00272345
Decay Rate-2.81E-06
L11 43175U 18012B 21269.09840767 -.00000281 00000-0 00000+0 0 9994
L22 43175 0.0127 251.7962 0001196 300.3784 160.8969 1.00272345 13755

Live tracking and technical data element details for SES-14 (NORAD 43175). SES-14 can be tracked NOW for your location showing map with azimuth and elevation plus other details from your city location.

Track the satellite on the map from your city or location and see movement details for azimuth, elevation, latitude, longitude, range, height, and movement on the map or in text.







IsCatalogInMostPopularTable: catalog: 43175, numindb: 541
Update: records affected: 1



GetName: 43175 SES-14

Hit Count: updated at: Mon, 27 Sep 2021 01:55:38 GMT